Regional Weather Roundup
Issued by NWS

Home | Current Version | Previous Version | Text Only | Print | Product List | Glossary On
Versions: 1 2 3 4 5 6 7 8 9 10 11 12 13 14 15 16 17 18 19 20 21 22 23 24 25 26 27 28 29 30 31 32 33 34 35 36 37 38 39 40 41 42 43 44 45 46 47 48 49 50
000
ASUS43 KMKX 292300
RWRWI

WISCONSIN REGIONAL WEATHER ROUNDUP
NATIONAL WEATHER SERVICE MILWAUKEE/SULLIVAN WI
600 PM CDT WED MAR 29 2017

NOTE: "FAIR" INDICATES FEW OR NO CLOUDS BELOW 12,000 FEET WITH NO
SIGNIFICANT WEATHER AND/OR OBSTRUCTIONS TO VISIBILITY.

WIZ001-002-006>008-014>016-023>028-300000-
NORTHWEST WISCONSIN

CITY           SKY/WX    TMP DP  RH WIND       PRES   REMARKS
SUPERIOR ARPT  CLOUDY    35  32  89 NE15G21   30.26S WCI  25
ASHLAND        CLOUDY    37  29  72 NE10      30.24F WCI  30
HAYWARD        CLOUDY    52  29  41 E3        30.18F
SIREN          CLOUDY    51  30  43 SE5       30.18S
CUMBERLAND     CLOUDY    45  32  61 SE5       30.18F
RICE LAKE      CLOUDY    48  32  54 CALM      30.19F
CHETEK         CLOUDY    47  34  60 E9        30.19S
LADYSMITH      CLOUDY    49  33  54 E5        30.20F
EAU CLAIRE     NOT AVBL
MENOMONIE      CLOUDY    48  34  58 SE6       30.18F
NEW RICHMOND   CLOUDY    47  32  55 E5        30.17F
OSCEOLA        CLOUDY    48  34  57 SE6       30.20F
$$

WIZ003>005-009-010-017-018-300000-
NORTH CENTRAL WISCONSIN

CITY           SKY/WX    TMP DP  RH WIND       PRES   REMARKS
MANITOWISH WTR CLOUDY    46  29  53 E3        30.20F
ARBOR VITAE    CLOUDY    46  30  52 E7        30.20F
WOODRUFF       CLOUDY    46  30  52 E7        30.20F
RHINELANDER    CLOUDY    46  29  51 E8        30.21F
EAGLE RIVER    CLOUDY    45  26  48 E6        30.21F
LAND O LAKES   CLOUDY    45  28  50 E6        30.23F
PHILLIPS       CLOUDY    47  30  53 SE5       30.20S
TOMAHAWK       CLOUDY    44  30  57 CALM      30.21S
MEDFORD        CLOUDY    44  31  59 E7        30.19F
MERRILL        CLOUDY    45  31  58 E9        30.22S
$$

WIZ029-030-035-036-043>047-300000-
CENTRAL WISCONSIN

CITY           SKY/WX    TMP DP  RH WIND       PRES   REMARKS
WAUSAU         CLOUDY    43  29  57 E9        30.19F
MOSINEE        PTSUNNY   43  30  61 E9        30.20F
MARSHFIELD     CLOUDY    43  31  62 SE8       30.19F
STEVENS POINT  CLOUDY    41  29  61 E14       30.20F
WAUPACA        CLOUDY    45  32  61 NE9       30.22F
WAUTOMA        CLOUDY    43  31  62 E9        30.23R
WISC RAPIDS    LGT RAIN  43  34  70 E7        30.23R
CAMP DOUGLAS   NOT AVBL
$$

WIZ011>013-019>022-031-037>040-048>050-300000-
NORTHEAST WISCONSIN

CITY           SKY/WX    TMP DP  RH WIND       PRES   REMARKS
ANTIGO         CLOUDY    41  30  65 E8        30.22S
SHAWANO        CLOUDY    43  31  63 E7        30.26S
OCONTO         CLOUDY    39  27  62 NE7       30.26F WCI  34
STURGEON BAY   PTSUNNY   38  27  64 NE8       30.25S WCI  32
GREEN BAY      CLOUDY    40  31  70 NE13      30.23F WCI  32
MANITOWOC      NOT AVBL
APPLETON       CLOUDY    41  28  60 NE12      30.20F
CLINTONVILLE   CLOUDY    41  30  65 NE9       30.24S
OSHKOSH        CLOUDY    41  30  65 NE10      30.20S
$$

WIZ032>034-041-042-053>061-300000-
SOUTHWEST WISCONSIN

CITY           SKY/WX    TMP DP  RH WIND       PRES   REMARKS
LA CROSSE      LGT RAIN  47  38  71 NE9G17    30.15F
SPARTA         CLOUDY    44  39  84 NE8       30.19S
VIROQUA        CLOUDY    43  37  79 E13       30.14F
BOSCOBEL       LGT RAIN  45  38  76 NE9G18    30.14F
PRAIRIE DU CHI LGT RAIN  41  40  96 NE16      30.12S
PLATTEVILLE    CLOUDY    43  38  81 NE24G32   30.10R
$$

WIZ056-057-062-063-064-067-068-300000-
SOUTH CENTRAL WISCONSIN

CITY           SKY/WX    TMP DP  RH WIND       PRES   REMARKS
REEDSBURG      CLOUDY    45  40  83 NE8       30.18R
BARABOO/DELLS  CLOUDY    44  38  80 NE8       30.18R
LONE ROCK      NOT AVBL
MINERAL POINT  LGT RAIN  45  37  76 E16G25    30.11F
MADISON        CLOUDY    45  33  63 NE12      30.14R
MIDDLETON      CLOUDY    47  34  60 E9        30.17R
WATERTOWN      CLOUDY    44  34  68 E10       30.15R
MONROE         LGT RAIN  43  34  70 NE15G23   30.08F
JANESVILLE     DRIZZLE   45  34  65 NE17G24   30.09F
$$

WIZ051-052-058>065-066-070>072-300000-
SOUTHEAST WISCONSIN

CITY           SKY/WX    TMP DP  RH WIND       PRES   REMARKS
MILWAUKEE      CLOUDY    38  34  85 N15G24    30.15F WCI  29
WAUKESHA       CLOUDY    39  32  75 NE15G22   30.15F WCI  31
MILWAUKEE/TIMM CLOUDY    37  32  81 NE12G17   30.17F WCI  30
RACINE         CLOUDY    39  34  82 NE16G23   30.15F WCI  30
KENOSHA        CLOUDY    42  33  70 NE15      30.13F
FOND DU LAC    CLOUDY    43  29  57 NE14      30.19F
SHEBOYGAN      CLOUDY    37  33  85 NE14      30.20F WCI  28
WEST BEND      CLOUDY    39  32  75 NE10G17   30.17F WCI  32
JUNEAU         CLOUDY    42  35  74 NE10      30.17R
$$

LSZ147-162-300000-
LAKE SUPERIOR

STATION/POSITION TIME  TEMP    WIND        PRES    WAVE
                       AIR SEA DIR/SP/G            HT/PER
                 (UTC) (F)     (DEG/KT/KT) (MB)    (FT/S)
DEVILS ISLAND    2200   34      50/ 17/ 19 1026.0F
PORT WING        2230   35      40/ 20/ 24 1024.4S
SAXON HARBOR     2230   35     310/  8/  8 1023.4F
$$

LMZ867-665-643>646-300000-
LAKE MICHIGAN

STATION/POSITION TIME  TEMP    WIND        PRES    WAVE
                       AIR SEA DIR/SP/G            HT/PER
                 (UTC) (F)     (DEG/KT/KT) (MB)    (FT/S)
CHAMBERS ISLAND  2240   36      40/ 10/ 12 1024.7F
NORTHPORT PIER   2240   36      60/  9/ 11 1025.1F
SISTER BAY       2051   41      40/  6/ 10   N/A
KEWAUNEE LAKESHO 2230   36      40/ 10/ 15 1024.0F
SHEBOYGAN LAKESH 2200   36      10/ 18/ 19 1023.7F
PORT WASHINGTON  2230   39      30/  9/ 16 1023.4F
MILWAUKEE LAKESH 2230   37      10/ 14/ 17   N/A
KENOSHA   LAKESH 2200   38      30/ 14/ 18 1021.0
$$

TC  - TEMPERATURE IN CELSIUS
VSB - VISIBILITY IN STATUTE MILES
WCI - WIND CHILL INDEX
HX  - HEAT INDEX





USA.gov is the U.S. government's official web portal to all federal, state and local government web resources and services.